Location: Trebic
(49.2170°N, 15.8830°E)
Time: 04:26:29
(UTC+02:00)

Transit 2A Rocket - Pass Details

Date: 27 July 2019
Orbit: 590 x 913 km, 66.7° (Epoch: 21 August)

Event Time Altitude Azimuth Distance (km) Brightness Sun altitude
Rises 04:49:30 0° 259° (W) 3,472 - -5.1°
Exits shadow 04:50:04 - 261° (W) 3,281 7.7 -5.0°
Reaches altitude 10° 04:52:33 10° 273° (W) 2,494 7.2 -4.7°
Maximum altitude 04:57:11 24° 326° (NNW) 1,632 6.8 -4.1°
Drops below altitude 10° 05:01:33 10° 21° (NNE) 2,337 8.5 -3.5°
Sets 05:04:19 0° 35° (NE) 3,205 9.8 -3.2°
